Regional Weather Roundup
Issued by NWS

Home | Current Version | Previous Version | Graphics & Text | Print | Product List | Glossary On
Versions: 1 2 3 4 5 6 7 8 9 10 11 12 13 14 15 16 17 18 19 20 21 22 23 24 25 26 27 28 29 30 31 32 33 34 35 36 37 38 39 40 41 42 43 44 45 46 47 48 49 50
000
ASUS43 KDMX 200601
RWRIA

WEATHER ROUNDUP FOR IOWA
NATIONAL WEATHER SERVICE DES MOINES IA
1200 AM CST MON FEB 20 2017

NOTE: "FAIR" INDICATES FEW OR NO CLOUDS BELOW 12,000 FEET WITH NO
SIGNIFICANT WEATHER AND/OR OBSTRUCTIONS TO VISIBILITY.

* - THESE STATIONS ARE NOT NWS STATIONS...THUS NOT UNDER NWS
QUALITY CONTROL.  THEY ALSO DO NOT REPORT WEATHER SUCH
AS PRECIPITATION OR FOG.

IAZ001>003-012>014-020>022-031>034-043>046-200700-
   NORTHWEST IOWA

CITY           SKY/WX    TMP DP  RH WIND       PRES   REMARKS
CARROLL *      PTCLDY    50  48  93 S9        29.85F
CHEROKEE *     CLOUDY    54  51  88 S10       29.80F
DENISON *      MOCLDY    55  52  88 S12G21    29.81F
LE MARS *      CLOUDY    55  52  88 S15       29.77F
SHELDON *      CLOUDY    54  54 100 S18       29.78R
SIOUX CITY     CLOUDY    58  52  80 S14G26    29.78F
6HR MIN TEMP:  57; 6HR MAX TEMP:  63;

SPENCER        MOCLDY    51  46  83 S12       29.82R
6HR MIN TEMP:  51; 6HR MAX TEMP:  57;

STORM LAKE *   CLOUDY    52  48  87 S12       29.83F
$$

IAZ055>058-069>071-079>083-090>094-200700-
   SOUTHWEST IOWA

CITY           SKY/WX    TMP DP  RH WIND       PRES   REMARKS
ATLANTIC *     CLOUDY    54  52  94 S6        29.85F
CLARINDA *       N/A     54  52  94 SE5         N/A
COUNCIL BLFS * MOCLDY    55  55 100 S10       29.81F
CRESTON *      PTCLDY    57  48  72 S9        29.90R
HARLAN  *      MOCLDY    52  52 100 S6        29.87F
LAMONI         MOCLDY    60  47  61 S8        29.90S
6HR MIN TEMP:  59; 6HR MAX TEMP:  67;

RED OAK *      CLOUDY    50  48  93 CALM      29.85F
SHENANDOAH *   CLOUDY    54  52  94 SE8       29.85F
$$

IAZ047>049-059>061-072>074-084-200700-
   CENTRAL IOWA

CITY           SKY/WX    TMP DP  RH WIND       PRES   REMARKS
AMES           CLOUDY    51  47  86 SE8       29.89S
6HR MIN TEMP:  51; 6HR MAX TEMP:  61;

ANKENY *       PTCLDY    54  46  76 SE5       29.90F
BOONE *        CLOUDY    50  48  93 SE9       29.88S
CHARITON *     PTCLDY    59  48  67 SE12      29.90S
DES MOINES     CLOUDY    58  46  64 SE9       29.90R
6HR MIN TEMP:  58; 6HR MAX TEMP:  67;

GRINNELL*      CLOUDY    55  46  74 SE9       29.94F
KNOXVILLE *    CLOUDY    61  46  59 SE12      29.89S
MARSHALLTOWN   CLOUDY    52  46  80 SE10      29.92R
6HR MIN TEMP:  51; 6HR MAX TEMP:  63;

NEWTON *       CLOUDY    54  46  76 SE12      29.91S
PELLA *        CLOUDY    59  47  63 SE7       29.93R
PERRY *          N/A     47  43  88 SE8       29.87F
$$

IAZ004>006-015-016-023>025-035-036-200700-
   NORTH CENTRAL IOWA

CITY           SKY/WX    TMP DP  RH WIND       PRES   REMARKS
ALGONA *       CLOUDY    54  46  76 SE17G25   29.86R
CLARION *      CLOUDY    52  50  93 SE15      29.88S
ESTHERVILLE    PTCLDY    48  46  93 S16       29.83R
6HR MIN TEMP:  48; 6HR MAX TEMP:  54;

FORT DODGE *   PTCLDY    57  45  62 SE9       29.87S
MASON CITY     CLOUDY    48  43  82 SE14      29.91S
6HR MIN TEMP:  47; 6HR MAX TEMP:  55;

FOREST CITY *    N/A     48  43  81 SE10      29.89S
IOWA FALLS *     N/A     50  45  83 SE10      29.92S
$$

IAZ007>011-017>019-026>030-037>042-050>054-066-200700-
   NORTHEAST IOWA

CITY           SKY/WX    TMP DP  RH WIND       PRES   REMARKS
CEDAR RAPIDS   CLOUDY    56  48  74 S12       29.96R
6HR MIN TEMP:  52; 6HR MAX TEMP:  62;

CHARLES CITY * MOCLDY    50  46  87 SE14      29.93S
CLINTON *      PTCLDY    52  46  80 SE12      30.03R
DECORAH *      CLOUDY    50  41  71 SE12      29.96R
DUBUQUE        CLOUDY    51  42  71 SE13      30.02R
6HR MIN TEMP:  50; 6HR MAX TEMP:  55;

MONTICELLO *   MOCLDY    52  45  76 SE12      29.99S
OELWEIN *      CLOUDY    46  45  93 SE12      29.97S
WATERLOO       CLOUDY    50  42  74 SE8       29.95R
6HR MIN TEMP:  48; 6HR MAX TEMP:  59;

$$

IAZ064-065-067-068-078-200700-
   EAST CENTRAL IOWA

CITY           SKY/WX    TMP DP  RH WIND       PRES   REMARKS
DAVENPORT      PTCLDY    55  47  74 SE13      30.02R
6HR MIN TEMP:  55; 6HR MAX TEMP:  60;

IOWA CITY      CLOUDY    52  45  77 SE6       29.99S
6HR MIN TEMP:  49; 6HR MAX TEMP:  61;

MUSCATINE *    MOCLDY    55  48  76 SE8       30.00S
QUAD CITIES    CLOUDY    55  46  71 SE6       30.01R
6HR MIN TEMP:  55; 6HR MAX TEMP:  64;

$$

IAZ062-063-075>077-085>089-095>099-200700-
   SOUTHEAST IOWA

CITY           SKY/WX    TMP DP  RH WIND       PRES   REMARKS
BURLINGTON     PTCLDY    58  51  78 S12       29.99S
6HR MIN TEMP:  56; 6HR MAX TEMP:  65;

FAIRFIELD *    PTCLDY    59  48  67 SE13      29.95S
KEOKUK *       CLOUDY    59  52  77 SE10      29.98S
OTTUMWA        CLOUDY    60  49  66 S15       29.93S
6HR MIN TEMP:  60; 6HR MAX TEMP:  65;

WASHINGTON *   PTCLDY    54  48  82 SE10      29.98R
$$

ABBREVIATIONS USED IN REMARKS
   TC - TEMPERATURES IN CELSIUS
  WCI - WIND CHILL INDEX
   HX - HEAT INDEX
  VSB - VISIBILITY
$$




USA.gov is the U.S. government's official web portal to all federal, state and local government web resources and services.